Location: Slemon Park
(46.4340°N, 63.8219°W)
Time: 21:49:31
(UTC-03:00)

ISS - All Passes

Search period start: 22 October 2017 00:00
Search period end: 01 November 2017 00:00
Orbit: 401 x 408 km, 51.6° (Epoch: 23 October)

Date Brightness Start Highest point End Pass type
(mag) Time Alt. Az. Time Alt. Az. Time Alt. Az.
22 Oct - 10:17:25 10° SW 10:20:28 39° SE 10:23:32 10° ENE daylight
22 Oct - 11:53:45 10° W 11:56:55 46° NNW 12:00:06 10° ENE daylight
22 Oct - 13:30:52 10° WNW 13:33:51 31° N 13:36:50 10° ENE daylight
22 Oct - 15:07:27 10° WNW 15:10:43 63° NNE 15:13:57 10° ESE daylight
22 Oct - 16:44:15 10° W 16:46:59 24° SW 16:49:42 10° SSE daylight
23 Oct - 09:25:39 10° SSW 09:28:17 23° SE 09:30:55 10° E daylight
23 Oct - 11:01:18 10° WSW 11:04:31 66° NNW 11:07:47 10° ENE daylight
23 Oct - 12:38:24 10° WNW 12:41:22 31° N 12:44:21 10° ENE daylight
23 Oct - 14:15:09 10° WNW 14:18:18 45° NNE 14:21:28 10° E daylight
23 Oct - 15:51:40 10° WNW 15:54:47 42° SW 15:57:54 10° SE daylight
24 Oct - 08:34:30 10° SSE 08:36:10 13° SE 08:37:50 10° ESE daylight
24 Oct - 10:08:56 10° WSW 10:12:11 80° SSE 10:15:27 10° ENE daylight
24 Oct - 11:45:50 10° WNW 11:48:53 34° N 11:51:55 10° ENE daylight
24 Oct - 13:22:47 10° WNW 13:25:51 36° N 13:28:55 10° E daylight
24 Oct - 14:59:15 10° WNW 15:02:31 72° SSW 15:05:47 10° SE daylight
24 Oct - 16:37:12 10° WSW 16:38:29 12° SW 16:39:45 10° SSW daylight
25 Oct - 09:16:45 10° SW 09:19:53 47° SE 09:23:02 10° ENE daylight
25 Oct - 10:53:16 10° W 10:56:24 42° NNW 10:59:32 10° ENE daylight
25 Oct - 12:30:22 10° WNW 12:33:21 32° N 12:36:20 10° ENE daylight
25 Oct - 14:06:53 10° WNW 14:10:10 72° NNE 14:13:26 10° ESE daylight
25 Oct - 15:43:51 10° W 15:46:22 20° SW 15:48:52 10° S daylight
26 Oct - 08:24:49 10° SSW 08:27:38 27° SE 08:30:28 10° E daylight
26 Oct - 10:00:44 10° WSW 10:03:57 58° NNW 10:07:11 10° ENE daylight
26 Oct - 11:37:52 10° WNW 11:40:50 31° N 11:43:48 10° ENE daylight
26 Oct - 13:14:33 10° WNW 13:17:45 49° NNE 13:20:57 10° E daylight
26 Oct - 14:51:08 10° WNW 14:54:10 34° SW 14:57:09 10° SSE daylight
27 Oct - 07:33:22 10° S 07:35:28 16° SE 07:37:34 10° E daylight
27 Oct - 09:08:17 10° WSW 09:11:32 87° NW 09:14:50 10° ENE daylight
27 Oct - 10:45:18 10° WNW 10:48:17 33° N 10:51:19 10° ENE daylight
27 Oct - 12:22:11 10° WNW 12:25:16 38° NNE 12:28:21 10° E daylight
27 Oct - 13:58:38 10° WNW 14:01:51 60° SSW 14:05:05 10° SE daylight
28 Oct - 08:16:00 10° SW 08:19:11 57° SSE 08:22:24 10° ENE daylight
28 Oct - 09:52:40 10° W 09:55:47 39° NNW 09:58:52 10° ENE daylight
28 Oct - 11:29:44 10° WNW 11:32:44 33° N 11:35:44 10° ENE daylight
28 Oct - 13:06:14 10° WNW 13:09:30 84° NNE 13:12:46 10° ESE daylight
28 Oct - 14:43:23 10° W 14:45:37 17° SW 14:47:49 10° S daylight
29 Oct - 07:23:56 10° SSW 07:26:53 33° SE 07:29:51 10° ENE daylight
29 Oct - 09:00:05 10° W 09:03:16 51° NNW 09:06:29 10° ENE daylight
29 Oct - 10:37:13 10° WNW 10:40:11 31° N 10:43:08 10° ENE daylight
29 Oct - 12:13:50 10° WNW 12:17:04 56° NNE 12:20:17 10° E daylight
29 Oct - 13:50:31 10° W 13:53:24 29° SW 13:56:16 10° SSE daylight
30 Oct - 06:32:14 10° S 06:34:39 19° SE 06:37:04 10° E visible
30 Oct - 08:07:33 10° WSW 08:10:48 75° NNW 08:14:04 10° ENE daylight
30 Oct - 09:44:37 10° WNW 09:47:36 32° N 09:50:36 10° ENE daylight
30 Oct - 11:21:26 10° WNW 11:24:33 41° NNE 11:27:41 10° E daylight
30 Oct - 12:57:55 10° WNW 13:01:06 50° SSW 13:04:15 10° SE daylight
31 Oct - 05:41:28 10° SSE 05:42:28 11° SE 05:43:27 10° ESE visible
31 Oct - 07:15:10 10° SW 07:18:23 68° SSE 07:21:39 10° ENE visible
31 Oct - 08:51:58 10° W 08:55:02 36° N 08:58:06 10° ENE daylight
31 Oct - 10:28:58 10° WNW 10:32:00 34° N 10:35:02 10° ENE daylight
31 Oct - 12:05:27 10° WNW 12:08:43 84° SSW 12:11:58 10° ESE daylight
31 Oct - 13:42:55 10° W 13:44:44 14° SW 13:46:33 10° SSW daylight
